Terminal Aerodrome Forecast
Issued by NWS

Home | Current Version | Previous Version | Graphics & Text | Print | Product List | Glossary On
Versions: 1 2 3 4 5 6 7 8 9 10 11 12 13 14 15 16 17 18 19 20 21 22 23 24 25 26 27 28
835
FTUS45 KGGW 272110 AAB
TAFGDV
TAF AMD
KGDV 272110Z 2721/2818 31019G29KT P6SM -SHRA BKN080
     FM280200 31008KT P6SM SCT100
     FM281500 30011KT P6SM SCT080=

USA.gov is the U.S. government's official web portal to all federal, state and local government web resources and services.